Regional Weather Roundup
Issued by NWS

Home | Current Version | Previous Version | Text Only | Print | Product List | Glossary On
Versions: 1 2 3 4 5 6 7 8 9 10 11 12 13 14 15 16 17 18 19 20 21 22 23 24 25 26 27 28 29 30 31 32 33 34 35 36 37 38 39 40 41 42 43 44 45 46 47 48 49 50
000
ASUS43 KOAX 201202
RWRNE

WEATHER ROUNDUP FOR NEBRASKA
NATIONAL WEATHER SERVICE OMAHA NE
700 AM CDT SUN APR 20 2014

NOTES: SATELLITE DATA IS BEING USED TO AUGMENT CLOUD COVER ABOVE
       12000 FEET.
       "FAIR" INDICATES FEW OR NO CLOUDS BELOW 12,000 FEET WITH NO
       SIGNIFICANT WEATHER AND/OR OBSTRUCTIONS TO VISIBILITY.

  * THESE STATIONS DO NOT REPORT WEATHER SUCH AS RAIN...SNOW OR FOG.

NEZ001>004-019>022-054>056-201300-
NEBRASKA PANHANDLE

CITY           SKY/WX    TMP DP  RH WIND       PRES   REMARKS
SCOTTSBLUFF    CLEAR     39  34  82 E6        29.99S WCI  35
6HR MIN TEMP:  39; 6HR MAX TEMP:  48;

ALLIANCE       CLEAR     38  35  89 S3        29.97F
6HR MIN TEMP:  38; 6HR MAX TEMP:  41;

CHADRON        CLEAR     48  38  68 S8        29.93S
6HR MIN TEMP:  45; 6HR MAX TEMP:  53;

KIMBALL        CLEAR     40  37  88 W7        30.00S
SIDNEY         CLEAR     37  32  82 SW10      30.01F WCI  30
6HR MIN TEMP:  35; 6HR MAX TEMP:  45;

$$

NEZ057>060-069>072-079>082-201300-
SOUTHWEST NEBRASKA

CITY           SKY/WX    TMP DP  RH WIND       PRES   REMARKS
NORTH PLATTE   CLEAR     37  34  89 CALM      30.00F
6HR MIN TEMP:  35; 6HR MAX TEMP:  50;

IMPERIAL       MOCLDY    41  38  89 N6        30.01R
6HR MIN TEMP:  40; 6HR MAX TEMP:  48;

LEXINGTON      MOCLDY    46  42  86 W7        29.98R
MCCOOK         CLOUDY    49  46  90 CALM      29.98S
6HR MIN TEMP:  49; 6HR MAX TEMP:  55;

OGALLALA       CLEAR     36  33  90 W6        30.01R WCI  31
$$

NEZ005>010-023>029-035>040-094-201300-
NORTH CENTRAL NEBRASKA

CITY           SKY/WX    TMP DP  RH WIND       PRES   REMARKS
VALENTINE      CLEAR     34  24  67 CALM      30.00S
6HR MIN TEMP:  31; 6HR MAX TEMP:  40;

AINSWORTH      CLEAR     40  29  66 CALM      29.99S
BROKEN BOW     CLEAR     39  34  82 NW3       29.99S
6HR MIN TEMP:  38; 6HR MAX TEMP:  53;

O`NEILL        PTCLDY    42  31  63 N6        29.99S
ORD            CLEAR     43  34  70 NW9       29.97S
6HR MIN TEMP:  43; 6HR MAX TEMP:  55;

THEDFORD       CLEAR     40  34  79 CALM      30.02R
$$

NEZ041-046>049-061>064-073>077-083>087-201300-
SOUTH CENTRAL NEBRASKA

CITY           SKY/WX    TMP DP  RH WIND       PRES   REMARKS
GRAND ISLAND   PTCLDY    51  47  86 W5        29.98R
6HR MIN TEMP:  51; 6HR MAX TEMP:  62; 6HR PCP: TRACE;

AURORA         PTCLDY    52  48  86 SW8       29.96R
HASTINGS       MOCLDY    53  46  77 W5        29.96R
6HR MIN TEMP:  53; 6HR MAX TEMP:  64;

HEBRON         MOCLDY    60  49  68 S14       29.98R
HOLDREGE       MOCLDY    50  46  86 NW6       29.98R
KEARNEY *      PTCLDY    52  45  76 NW6       29.99R
YORK           PTCLDY    54  50  87 S7        29.97R
$$

NEZ011>018-030>034-042>045-201300-
NORTHEAST NEBRASKA

CITY           SKY/WX    TMP DP  RH WIND       PRES   REMARKS
NORFOLK        MOCLDY    51  45  79 NW6       29.96R
6HR MIN TEMP:  50; 6HR MAX TEMP:  60;

ALBION         MOCLDY    51  39  64 NW8       29.96S
BLAIR          CLEAR     59  46  62 S9        29.97S
COLUMBUS *     CLOUDY    54  45  71 S5        29.96R
FREMONT        PTCLDY    60  47  62 SE8       29.97S
TEKAMAH        MOCLDY    58  45  62 S12       29.96S
6HR MIN TEMP:  57; 6HR MAX TEMP:  68;

$$

NEZ050>053-065>068-078-088>093-201300-
SOUTHEAST NEBRASKA

CITY           SKY/WX    TMP DP  RH WIND       PRES   REMARKS
LINCOLN        MOCLDY    62  48  60 S12       29.97R
6HR MIN TEMP:  62; 6HR MAX TEMP:  67;

OMAHA EPPLEY   PTCLDY    59  47  64 SE9       29.98R
6HR MIN TEMP:  58; 6HR MAX TEMP:  67;

BEATRICE       MOCLDY    62  49  61 S12G22    29.98S
FALLS CITY     PTCLDY    59  48  67 S12       30.02S
6HR MIN TEMP:  59; 6HR MAX TEMP:  64;

NEBRASKA CITY  MOCLDY    63  48  57 S16G23    29.99S
PLATTSMOUTH    MOCLDY    63  46  54 S18G24    29.98R
$$

NEZ044-045-051>053-067-201300-
OMAHA AREA

CITY           SKY/WX    TMP DP  RH WIND       PRES   REMARKS
OMAHA EPPLEY   PTCLDY    59  47  64 SE9       29.98R
6HR MIN TEMP:  58; 6HR MAX TEMP:  67;

BLAIR          CLEAR     59  46  62 S9        29.97S
FREMONT        PTCLDY    60  47  62 SE8       29.97S
MILLARD        PTCLDY    58  46  65 CALM      29.98S
OFFUTT AFB     CLOUDY    62  49  61 S6        29.99R
PLATTSMOUTH    MOCLDY    63  46  54 S18G24    29.98R
WAHOO          FAIR      57  46  66 S8        29.96S
$$



USA.gov is the U.S. government's official web portal to all federal, state and local government web resources and services.